This demonstration page uses our WeatherBlox Daily Observations layout. Learn more.

Hourly Observations for January 16, 2020

Temp ( °F °C ) Dew Point ( °F °C ) Humidity (%) Winds ( mph kmh ) Pressure ( in mb ) Visibility ( mi km ) Precip ( " mm )
12:16 am 00:16 Cloudy 37 3 37 3 100 100 WNW 22 35 30.27 1025 10 16.0934 N/A
12:35 am 00:35 Cloudy 37 3 37 3 100 100 NW 18 30 30.28 1026 10 16.0934 N/A
12:55 am 00:55 Cloudy 37 3 37 3 100 100 NW 10 17 30.29 1026 10 16.0934 N/A
1:16 am 01:16 Cloudy 37 3 37 3 100 100 NW 14 22 30.3 1026 10 16.0934 N/A
1:35 am 01:35 Cloudy 36 2 36 2 100 100 NW 14 22 30.32 1027 10 16.0934 N/A
1:56 am 01:56 Cloudy 36 2 36 2 100 100 NW 14 22 30.33 1027 10 16.0934 N/A
2:15 am 02:15 Cloudy 36 2 36 2 100 100 WNW 21 33 30.34 1027 10 16.0934 N/A
2:35 am 02:35 Cloudy 36 2 36 2 100 100 NW 9 15 30.35 1028 10 16.0934 N/A
2:55 am 02:55 Cloudy 34 1 34 1 100 100 NNW 10 17 30.36 1028 10 16.0934 N/A
3:15 am 03:15 Cloudy 34 1 34 1 100 100 WNW 14 22 30.38 1029 10 16.0934 N/A
3:35 am 03:35 Cloudy 34 1 32 0 93 93 NW 14 22 30.38 1029 10 16.0934 N/A
3:55 am 03:55 Cloudy 34 1 32 0 93 93 NW 14 22 30.4 1030 10 16.0934 N/A
4:15 am 04:15 Cloudy 32 0 32 0 100 100 NW 16 26 30.41 1030 10 16.0934 N/A
4:35 am 04:35 Cloudy 32 0 32 0 100 100 NW 8 13 30.42 1030 10 16.0934 N/A
4:56 am 04:56 Cloudy 32 0 32 0 100 100 WNW 15 24 30.44 1031 10 16.0934 N/A
5:16 am 05:16 Cloudy 32 0 32 0 100 100 WNW 15 24 30.45 1031 10 16.0934 N/A
5:35 am 05:35 Cloudy 30 -1 30 -1 100 100 NW 15 24 30.47 1032 10 16.0934 N/A
5:56 am 05:56 Cloudy 32 0 32 0 100 100 WNW 10 17 30.48 1032 10 16.0934 N/A
6:15 am 06:15 Cloudy 32 0 30 -1 93 93 WNW 21 33 30.48 1032 10 16.0934 N/A
6:35 am 06:35 Cloudy 30 -1 30 -1 100 100 WNW 17 28 30.5 1033 10 16.0934 N/A
6:55 am 06:55 Cloudy 30 -1 30 -1 100 100 WNW 17 28 30.5 1033 10 16.0934 N/A
7:15 am 07:15 Cloudy 30 -1 28 -2 93 93 NW 16 26 30.51 1033 10 16.0934 N/A
7:36 am 07:36 Cloudy 30 -1 30 -1 100 100 NW 14 22 30.53 1034 10 16.0934 N/A
7:56 am 07:56 Cloudy 30 -1 28 -2 93 93 NW 18 30 30.55 1035 10 16.0934 N/A
8:15 am 08:15 Cloudy 28 -2 28 -2 100 100 WNW 14 22 30.54 1034 10 16.0934 N/A
8:36 am 08:36 Cloudy 28 -2 28 -2 100 100 WNW 14 22 30.55 1035 10 16.0934 N/A
8:56 am 08:56 Cloudy 28 -2 28 -2 100 100 W 13 20 30.56 1035 10 16.0934 N/A
9:16 am 09:16 Cloudy 28 -2 28 -2 100 100 W 15 24 30.57 1035 7 11.26538 N/A
9:36 am 09:36 Cloudy 28 -2 27 -3 93 93 WNW 17 28 30.57 1035 7 11.26538 N/A
9:55 am 09:55 Cloudy 28 -2 27 -3 93 93 WNW 14 22 30.58 1036 7 11.26538 N/A
10:16 am 10:16 Cloudy 28 -2 27 -3 93 93 W 16 26 30.59 1036 10 16.0934 N/A
10:35 am 10:35 Mostly Cloudy 28 -2 27 -3 93 93 WNW 15 24 30.59 1036 10 16.0934 N/A
10:55 am 10:55 Partly Cloudy 30 -1 27 -3 86 86 WNW 17 28 30.59 1036 10 16.0934 N/A
11:15 am 11:15 Partly Cloudy 30 -1 27 -3 86 86 WNW 15 24 30.61 1037 10 16.0934 N/A
11:35 am 11:35 Partly Cloudy 30 -1 25 -4 80 80 NW 12 19 30.61 1037 10 16.0934 N/A
11:55 am 11:55 Partly Cloudy 30 -1 27 -3 86 86 W 14 22 30.62 1037 10 16.0934 N/A
12:16 pm 12:16 Partly Cloudy 30 -1 27 -3 86 86 WNW 12 19 30.62 1037 10 16.0934 N/A
12:36 pm 12:36 Sunny 32 0 27 -3 80 80 WNW 10 17 30.62 1037 10 16.0934 N/A
12:55 pm 12:55 Sunny 32 0 25 -4 75 75 NW 14 22 30.61 1036 10 16.0934 N/A
1:15 pm 13:15 Sunny 32 0 25 -4 75 75 WNW 17 28 30.61 1036 10 16.0934 N/A
1:36 pm 13:36 Sunny 34 1 27 -3 75 75 WNW 13 20 30.61 1037 10 16.0934 N/A
1:55 pm 13:55 Sunny 32 0 27 -3 80 80 NW 14 22 30.62 1037 10 16.0934 N/A
2:15 pm 14:15 Sunny 32 0 25 -4 75 75 WNW 14 22 30.62 1037 10 16.0934 N/A
2:35 pm 14:35 Sunny 32 0 25 -4 75 75 NW 10 17 30.62 1037 10 16.0934 N/A
2:56 pm 14:56 Sunny 32 0 25 -4 75 75 WNW 12 19 30.62 1037 10 16.0934 N/A
3:15 pm 15:15 Sunny 32 0 25 -4 75 75 NW 13 20 30.64 1037 10 16.0934 N/A
3:35 pm 15:35 Sunny 32 0 25 -4 75 75 NW 9 15 30.64 1037 10 16.0934 N/A
3:55 pm 15:55 Sunny 32 0 23 -5 69 69 NW 12 19 30.64 1037 10 16.0934 N/A
4:15 pm 16:15 Sunny 32 0 23 -5 69 69 NW 12 19 30.65 1038 10 16.0934 N/A
4:36 pm 16:36 Sunny 32 0 23 -5 69 69 NW 12 19 30.66 1038 10 16.0934 N/A
4:56 pm 16:56 Sunny 32 0 23 -5 69 69 NW 8 13 30.66 1038 10 16.0934 N/A
5:15 pm 17:15 Sunny 30 -1 21 -6 69 69 NNW 12 19 30.67 1039 10 16.0934 N/A
5:35 pm 17:35 Sunny 28 -2 23 -5 80 80 NNW 7 11 30.68 1039 10 16.0934 N/A
5:55 pm 17:55 Clear 27 -3 21 -6 80 80 NNW 10 17 30.7 1040 10 16.0934 N/A
6:15 pm 18:15 Clear 27 -3 23 -5 86 86 NW 14 22 30.71 1040 10 16.0934 N/A
6:35 pm 18:35 Clear 27 -3 21 -6 80 80 NNW 9 15 30.72 1040 10 16.0934 N/A
6:55 pm 18:55 Clear 25 -4 21 -6 86 86 NW 13 20 30.72 1040 10 16.0934 N/A
7:16 pm 19:16 Clear 25 -4 21 -6 86 86 NW 8 13 30.74 1041 10 16.0934 N/A
7:35 pm 19:35 Clear 25 -4 21 -6 86 86 NNW 13 20 30.75 1041 10 16.0934 N/A
7:56 pm 19:56 Clear 25 -4 21 -6 86 86 NNW 13 20 30.75 1041 10 16.0934 N/A
8:15 pm 20:15 Clear 25 -4 21 -6 86 86 NNW 12 19 30.75 1041 10 16.0934 N/A
8:35 pm 20:35 Clear 25 -4 21 -6 86 86 NNW 12 19 30.76 1042 10 16.0934 N/A
8:56 pm 20:56 Clear 25 -4 21 -6 86 86 NNW 10 17 30.77 1042 10 16.0934 N/A
9:16 pm 21:16 Clear 23 -5 19 -7 86 86 NNW 14 22 30.78 1042 10 16.0934 N/A
9:36 pm 21:36 Clear 23 -5 18 -8 80 80 N 13 20 30.79 1042 10 16.0934 N/A
9:55 pm 21:55 Clear 23 -5 18 -8 80 80 N 16 26 30.8 1043 10 16.0934 N/A
10:15 pm 22:15 Clear 23 -5 18 -8 80 80 N 13 20 30.8 1043 10 16.0934 N/A
10:36 pm 22:36 Clear 23 -5 19 -7 86 86 N 8 13 30.8 1043 10 16.0934 N/A
10:56 pm 22:56 Clear 21 -6 19 -7 93 93 N 9 15 30.79 1043 10 16.0934 N/A
11:16 pm 23:16 Clear 21 -6 19 -7 93 93 N 12 19 30.79 1043 10 16.0934 N/A
11:36 pm 23:36 Clear 21 -6 19 -7 93 93 NNE 13 20 30.79 1043 10 16.0934 N/A
11:55 pm 23:55 Partly Cloudy 21 -6 19 -7 93 93 NNE 10 17 30.79 1043 10 16.0934 N/A

Powered by AerisWeather